Tracking 19847 objects as of 15-Sep-2019
HD Live streaming from Space Station
objects crossing your sky now

FENGYUN 1C DEB

Track FENGYUN 1C DEB now!
10-day predictions


NORAD ID: 32353
Int'l Code: 1999-025CYW
Perigee: 831.6 km
Apogee: 1,049.2 km
Inclination: 99.0 °
Period: 103.7 minutes
Semi major axis: 7311 km
RCS: 0.0065 m2 (small)
Launch date: May 10, 1999
Source: People's Republic of China (PRC)
Launch site: Taiyaun Space Center, China (TSC)

Note: This is SATELLITE DEBRIS
aabbcc
Your satellite tracking list
Your tracking list is empty




NASA's NSSDC Master Catalog

Two Line Element Set (TLE):
1 32353U 99025CYW 19248.43111793  .00000462  00000-0  38359-3 0  9997
2 32353  98.9870 110.3185 0148807 350.9769   8.8721 13.88672390615730
Source of the keplerian elements: AFSPC